This is the latest recevied weather packets stored in our database for station/object K5NWZ. If no packets are shown the sender has not sent any weather packets the latest 10 day(s).
| Time | Temp. | Humidity | Pressure | Rain* | Wind** | Luminosity | Snow |
|---|---|---|---|---|---|---|---|
| 1777726916 | 5° C | 59% | 1031.2 hPa | 0 mm | - | 84 W/m² | - |
| 1777726612 | 4.44° C | 60% | 1031.1 hPa | 0 mm | - | 49 W/m² | - |
| 1777726310 | 4.44° C | 61% | 1030.9 hPa | 0 mm | - | 35 W/m² | - |
| 1777726006 | 3.89° C | 63% | 1030.9 hPa | 0 mm | - | 38 W/m² | - |
| 1777725703 | 3.33° C | 70% | 1031 hPa | 0 mm | - | 28 W/m² | - |
| 1777725402 | 2.78° C | 72% | 1031 hPa | 0 mm | - | 25 W/m² | - |
| 1777725099 | 2.78° C | 74% | 1030.9 hPa | 0 mm | - | 23 W/m² | - |
| 1777724795 | 2.22° C | 76% | 1030.9 hPa | 0 mm | - | 20 W/m² | - |
| 1777724492 | 1.67° C | 76% | 1031 hPa | 0 mm | - | 17 W/m² | - |
| 1777724190 | 1.11° C | 76% | 1030.9 hPa | 0 mm | - | 14 W/m² | - |
| 1777723887 | 1.11° C | 73% | 1030.6 hPa | 0 mm | - | 10 W/m² | - |
| 1777723583 | 1.11° C | 73% | 1030.6 hPa | 0 mm | - | 7 W/m² | - |
| 1777723280 | 1.67° C | 72% | 1030.9 hPa | 0 mm | - | 5 W/m² | - |
| 1777722978 | 1.11° C | 71% | 1030.8 hPa | 0 mm | - | 3 W/m² | - |
| 1777722674 | 1.11° C | 71% | 1030.8 hPa | 0 mm | - | 1 W/m² | - |
| 1777722370 | 1.67° C | 71% | 1030.9 hPa | 0 mm | - | 1 W/m² | - |
| 1777722068 | 1.67° C | 70% | 1030.9 hPa | 0 mm | - | 0 W/m² | - |
| 1777721765 | 1.67° C | 69% | 1031 hPa | 0 mm | - | 0 W/m² | - |
| 1777721463 | 1.67° C | 69% | 1030.8 hPa | 0 mm | - | 0 W/m² | - |
| 1777721161 | 1.67° C | 69% | 1031 hPa | 0 mm | - | 0 W/m² | - |
| 1777720858 | 1.67° C | 69% | 1030.8 hPa | 0 mm | - | 0 W/m² | - |
| 1777720555 | 1.67° C | 68% | 1030.9 hPa | 0 mm | - | 0 W/m² | - |
| 1777720253 | 1.67° C | 69% | 1031.1 hPa | 0 mm | - | 0 W/m² | - |
| 1777719950 | 1.67° C | 68% | 1031 hPa | 0 mm | - | 0 W/m² | - |
| 1777719648 | 1.67° C | 68% | 1031 hPa | 0 mm | - | 0 W/m² | - |
* Rain latest hour (hover to see other rain measurements)
** Current wind speed in m/s (hover to see current wind gust speed)